STARLINK BK

Last updated on Wed May 19 2021 00:02:08 GMT+0000 (Coordinated Universal Time)

1 48485U 21040BK 21138.58335648 -.01107999 00000-0 -47078-2 0 9999 2 48485 53.0509 177.2621 0001053 70.6791 196.6249 15.87179295 1774

Satellite not in orbit

STARLINK BK